Content
SEND FEEDBACK

Daily
Averages
Monthly
Summary
United States of America

RAHWAY, NEW JERSEY


Home > North America > United States > New Jersey
Elevation: 20 feet     Latitude: 40 36N     Longitude: 074 16W

WEATHER
 
SELECT A DAY
Number of Records: 193,270;   Date Range: 1/1/95 - 11/25/14
 
SHARE

PRINT THIS DATA

[ ← Previous Day ]
WEATHER ALMANAC - NOVEMBER 1, 2013
[ Next Day → ]
[ °C ]   °F
Weather ElementAverageHighLow
Temperature66.1 °F71.1 °F (2:51 pm)59 °F (11:51 pm)
Dewpoint58.1 °F63 °F (6:51 am)52 °F (3:51 pm)
Humidity76.2 %90 % (1:51 am)53 % (2:51 pm)
Barometer29.63 in29.75 in (1:51 am)29.57 in (8:51 am)
Wind Speed15.4 mph31.1 mph (9:56 am)
Wind Gust49.5 mph (9:56 am)
Weather ElementAverage
Visibility9.2 mi
Wind DirectionSW (220.4 °)

Weather ElementTotal
Precipitation0.24 in
Growing Degree Days15.1 (Base 50)
Averaged from 25 records on November 1, 2013
WEATHER CONDITIONS BREAKOUT
WIND DIRECTION BREAKOUT
WEATHER BY HOUR - NOVEMBER 1, 2013
[ °C ]   °F
Local TimeTemperatureDewpointHumidityBarometerVisibilityWind DirectionWind SpeedGust SpeedPrecipitationEventsConditions
1:51 AM64.9 °F62.1 °F90 %29.75 in10.0 miSouth (190°)12.7 mphOvercast
2:51 AM64.9 °F62.1 °F90 %29.72 in10.0 miSSW (200°)15.0 mphOvercast
3:51 AM66.0 °F62.1 °F87 %29.69 in10.0 miSouth (190°)11.5 mphOvercast
4:51 AM66.9 °F61.0 °F81 %29.64 in10.0 miSouth (190°)13.8 mphOvercast
5:51 AM70.0 °F62.1 °F76 %29.61 in10.0 miSSW (200°)18.4 mph32.2 mph0.00 inRainLight Rain
6:51 AM70.0 °F63.0 °F78 %29.60 in9.0 miSSW (200°)18.4 mph25.3 mph0.00 inRainLight Rain
7:51 AM69.1 °F62.1 °F78 %29.58 in10.0 miSSW (200°)18.4 mph33.4 mphRainLight Rain
8:51 AM69.1 °F62.1 °F78 %29.57 in10.0 miSSW (200°)20.7 mph32.2 mph0.01 inRainLight Rain
9:51 AM69.1 °F63.0 °F81 %29.59 in4.0 miSW (220°)21.9 mph28.8 mph0.00 inRainRain
9:56 AM66.2 °F62.6 °F88 %29.62 in0.5 miWSW (250°)31.1 mph49.5 mph0.00 inRainHeavy Rain
10:02 AM64.4 °F60.8 °F88 %29.62 in7.0 miWSW (250°)19.6 mph49.5 mph0.11 inRainLight Rain
10:51 AM64.0 °F59.0 °F84 %29.60 in10.0 miSW (230°)13.8 mph0.12 inRainLight Rain
11:51 AM64.0 °F57.9 °F80 %29.61 in10.0 miSSW (210°)16.1 mph0.00 inOvercast
12:51 PM64.9 °F57.0 °F75 %29.58 in10.0 miSW (220°)17.3 mphMostly Cloudy
1:51 PM68.0 °F55.9 °F65 %29.57 in10.0 miSW (230°)17.3 mph27.6 mph0.00 inMostly Cloudy
2:51 PM71.1 °F53.1 °F53 %29.57 in10.0 miWSW (240°)21.9 mph27.6 mphMostly Cloudy
3:51 PM70.0 °F52.0 °F53 %29.57 in10.0 miWSW (240°)18.4 mph26.5 mphMostly Cloudy
4:51 PM70.0 °F52.0 °F53 %29.57 in10.0 miWSW (240°)9.2 mphScattered Clouds
5:51 PM68.0 °F52.0 °F56 %29.60 in10.0 miSSW (210°)15.0 mph19.6 mphScattered Clouds
6:51 PM66.0 °F54.0 °F65 %29.62 in10.0 miSSW (210°)13.8 mphScattered Clouds
7:51 PM64.0 °F55.0 °F73 %29.65 in10.0 miSSW (210°)10.4 mphScattered Clouds
8:51 PM63.0 °F55.0 °F75 %29.65 in10.0 miSW (230°)12.7 mph17.3 mphScattered Clouds
9:51 PM60.1 °F55.0 °F83 %29.67 in10.0 miSW (220°)6.9 mphScattered Clouds
10:51 PM60.1 °F55.9 °F86 %29.70 in10.0 miWSW (250°)4.6 mphScattered Clouds
11:51 PM59.0 °F55.9 °F90 %29.68 in10.0 miWest (280°)5.8 mphMostly Cloudy
Hourly data recorded from KEWR, located miles away from Rahway, New Jersey







STORIES FROM OUR PARTNERS